TimeEDT,TemperatureF,Dew PointF,Humidity,Sea Level PressureIn,VisibilityMPH,Wind Direction,Wind SpeedMPH,Gust SpeedMPH,PrecipitationIn,Events,Conditions,WindDirDegrees,DateUTC
12:53 AM,75.0,70.0,84,30.03,10.0,Calm,Calm,-,N/A,,Clear,0,2013-08-29 04:53:00
1:53 AM,73.0,70.0,90,30.02,10.0,Calm,Calm,-,N/A,,Clear,0,2013-08-29 05:53:00
2:53 AM,73.0,70.0,90,30.02,10.0,Calm,Calm,-,N/A,,Clear,0,2013-08-29 06:53:00
3:53 AM,72.0,69.1,91,30.01,10.0,Calm,Calm,-,N/A,,Clear,0,2013-08-29 07:53:00
4:53 AM,71.1,68.0,90,30.01,10.0,Calm,Calm,-,N/A,,Clear,0,2013-08-29 08:53:00
5:53 AM,71.1,66.9,87,30.01,10.0,Calm,Calm,-,N/A,Fog,Patches of Fog,0,2013-08-29 09:53:00
6:53 AM,71.1,66.9,87,30.02,10.0,Calm,Calm,-,N/A,Fog,Patches of Fog,0,2013-08-29 10:53:00
7:53 AM,73.0,69.1,87,30.04,10.0,Calm,Calm,-,N/A,,Partly Cloudy,0,2013-08-29 11:53:00
8:53 AM,78.1,70.0,76,30.05,10.0,NW,3.5,-,N/A,,Scattered Clouds,320,2013-08-29 12:53:00
9:53 AM,84.0,66.9,56,30.05,10.0,NNW,6.9,-,N/A,,Clear,340,2013-08-29 13:53:00
10:53 AM,88.0,66.9,49,30.05,10.0,Variable,4.6,-,N/A,,Clear,0,2013-08-29 14:53:00
11:53 AM,91.0,64.0,41,30.04,10.0,NW,10.4,-,N/A,,Clear,310,2013-08-29 15:53:00
12:53 PM,91.9,64.0,39,30.03,10.0,WNW,11.5,17.3,N/A,,Partly Cloudy,300,2013-08-29 16:53:00
1:53 PM,91.9,64.0,39,30.01,10.0,NW,9.2,-,N/A,,Partly Cloudy,310,2013-08-29 17:53:00
2:53 PM,93.0,62.1,36,30.00,10.0,West,12.7,16.1,N/A,,Partly Cloudy,280,2013-08-29 18:53:00
3:53 PM,95.0,63.0,34,29.97,10.0,West,16.1,-,N/A,,Partly Cloudy,280,2013-08-29 19:53:00
4:53 PM,93.9,61.0,33,29.95,10.0,NNW,11.5,-,N/A,,Partly Cloudy,330,2013-08-29 20:53:00
5:53 PM,93.0,63.0,37,29.95,10.0,WNW,10.4,-,N/A,,Partly Cloudy,290,2013-08-29 21:53:00
6:53 PM,91.9,64.0,39,29.94,10.0,NW,8.1,-,N/A,,Partly Cloudy,320,2013-08-29 22:53:00
7:53 PM,88.0,66.0,48,29.95,10.0,WNW,3.5,-,N/A,,Clear,290,2013-08-29 23:53:00
8:53 PM,84.9,69.1,59,29.96,10.0,WNW,3.5,-,N/A,,Clear,300,2013-08-30 00:53:00
9:53 PM,81.0,69.1,67,29.97,10.0,Calm,Calm,-,N/A,,Clear,0,2013-08-30 01:53:00
10:53 PM,78.1,70.0,76,29.97,10.0,Calm,Calm,-,N/A,,Clear,0,2013-08-30 02:53:00
11:53 PM,78.1,69.1,74,29.97,10.0,SE,13.8,31.1,N/A,,Clear,140,2013-08-30 03:53:00